K1UTS Weather Reports


Display with metric or nautical units.
time (UTC)temp
F
wind
direction
speed
MPH
gust
MPH
rain 1hr
in
rain 24hr
in
rain mn
in
humidity
%
barometer
mb
20260505003059 63 198 2.0 10.0 0.00 0.00 0.00 45 1005.7
20260505001557 64 142 3.0 11.0 0.00 0.00 0.00 43 1005.2
20260505000058 65 134 1.0 10.0 0.00 0.00 0.00 42 1005.0
20260504234553 66 278 2.0 7.0 0.00 0.00 0.00 41 1004.6
20260504233054 67 223 4.0 8.0 0.00 0.00 0.00 38 1004.4
20260504231553 67 82 2.0 7.0 0.00 0.00 0.00 36 1004.0
20260504230052 68 98 0.0 3.0 0.00 0.00 0.00 35 1003.7
20260504224551 68 51 0.0 6.0 0.00 0.00 0.00 34 1003.5
20260504223102 69 258 0.0 5.0 0.00 0.00 0.00 34 1003.4
20260504221551 69 68 1.0 9.0 0.00 0.00 0.00 33 1003.5
20260504220049 69 27 1.0 5.0 0.00 0.00 0.00 32 1003.6
20260504214549 70 19 0.0 7.0 0.00 0.00 0.00 31 1003.6
20260504213048 70 160 0.0 7.0 0.00 0.00 0.00 31 1003.6
20260504211628 70 47 1.0 6.0 0.00 0.00 0.00 32 1003.5
20260504210051 70 328 1.0 7.0 0.00 0.00 0.00 30 1003.7
20260504204546 71 296 1.0 5.0 0.00 0.00 0.00 29 1003.6
20260504203045 71 250 2.0 6.0 0.00 0.00 0.00 30 1003.5
20260504201544 72 257 1.0 5.0 0.00 0.00 0.00 29 1003.5
20260504200044 72 224 2.0 4.0 0.00 0.00 0.00 28 1003.5
20260504194549 72 171 2.0 5.0 0.00 0.00 0.00 27 1003.7
20260504193042 72 221 2.0 5.0 0.00 0.00 0.00 28 1003.7
20260504191558 74 10 2.0 6.0 0.00 0.00 0.00 26 1003.8
20260504190045 73 319 2.0 8.0 0.00 0.00 0.00 25 1003.9
20260504184547 73 175 2.0 8.0 0.00 0.00 0.00 25 1004.1
20260504183038 73 150 2.0 6.0 0.00 0.00 0.00 26 1004.4
20260504181536 72 110 3.0 12.0 0.00 0.00 0.00 27 1004.3
20260504180034 71 345 3.0 12.0 0.00 0.00 0.00 28 1004.3
20260504174533 72 234 2.0 9.0 0.00 0.00 0.00 28 1004.4
20260504173029 71 184 4.0 11.0 0.00 0.00 0.00 29 1004.7
20260504171529 72 214 3.0 7.0 0.00 0.00 0.00 28 1004.6
20260504081542 42 231 0.0 1.0 0.00 0.00 0.00 75 1007.7
20260504050014 38 219 0.0 2.0 0.00 0.00 0.00 71 1007.7
20260504044512 38 229 1.0 2.0 0.00 0.00 0.00 70 1007.7
20260504043004 39 229 0.0 2.0 0.00 0.00 0.00 70 1007.6
20260504041559 39 225 0.0 1.0 0.00 0.00 0.00 70 1007.6
20260504040131 39 225 0.0 2.0 0.00 0.00 0.00 70 1007.5
20260504034601 39 225 0.0 2.0 0.00 0.00 0.00 70 1007.3
20260504033051 39 225 0.0 1.0 0.00 0.00 0.00 69 1007.3
20260504031556 40 225 0.0 1.0 0.00 0.00 0.00 68 1007.2
20260504030047 41 225 1.0 2.0 0.00 0.00 0.00 66 1007.2
20260504024548 41 225 0.0 1.0 0.00 0.00 0.00 64 1007.1
20260504023046 42 225 0.0 1.0 0.00 0.00 0.00 62 1007.1
20260504021548 43 225 0.0 1.0 0.00 0.00 0.00 60 1007.1
20260504020058 43 225 0.0 1.0 0.00 0.00 0.00 59 1007.0
20260504014546 44 225 0.0 1.0 0.00 0.00 0.00 59 1007.0
20260504013046 44 225 0.0 2.0 0.00 0.00 0.00 57 1006.9
20260504011543 45 225 0.0 1.0 0.00 0.00 0.00 55 1006.7
20260504010048 46 225 0.0 0.0 0.00 0.00 0.00 52 1006.5
20260504004543 46 225 0.0 1.0 0.00 0.00 0.00 51 1006.3